This is the latest recevied weather packets stored in our database for station/object KI5MKI. If no packets are shown the sender has not sent any weather packets the latest 10 day(s).
| Time | Temp. | Humidity | Pressure | Rain* | Wind** | Luminosity | Snow |
|---|---|---|---|---|---|---|---|
| 1777229826 | 27.78° C | 70% | 1008.8 hPa | 0 mm | - | 649 W/m² | - |
| 1777229523 | 27.78° C | 70% | 1008.7 hPa | 0 mm | - | 630 W/m² | - |
| 1777229220 | 27.78° C | 70% | 1008.9 hPa | 0 mm | - | 579 W/m² | - |
| 1777228917 | 27.78° C | 71% | 1008.8 hPa | 0 mm | - | 603 W/m² | - |
| 1777228612 | 27.78° C | 71% | 1009 hPa | 0 mm | - | 703 W/m² | - |
| 1777228309 | 27.22° C | 72% | 1009.1 hPa | 0 mm | - | 558 W/m² | - |
| 1777228004 | 27.22° C | 72% | 1009.2 hPa | 0 mm | - | 460 W/m² | - |
| 1777227699 | 26.67° C | 73% | 1009.1 hPa | 0 mm | - | 556 W/m² | - |
| 1777227395 | 26.67° C | 72% | 1009 hPa | 0 mm | - | 389 W/m² | - |
| 1777227092 | 26.67° C | 73% | 1009 hPa | 0 mm | - | 445 W/m² | - |
| 1777226788 | 26.67° C | 72% | 1009.3 hPa | 0 mm | - | 588 W/m² | - |
| 1777226487 | 26.67° C | 71% | 1009.3 hPa | 0 mm | - | 446 W/m² | - |
| 1777226183 | 26.67° C | 73% | 1009.3 hPa | 0 mm | - | 386 W/m² | - |
| 1777225880 | 27.22° C | 73% | 1009.3 hPa | 0 mm | - | 395 W/m² | - |
| 1777225575 | 27.22° C | 73% | 1009.4 hPa | 0 mm | - | 443 W/m² | - |
| 1777225272 | 27.22° C | 71% | 1009.3 hPa | 0 mm | - | 695 W/m² | - |
| 1777224969 | 27.22° C | 72% | 1009.4 hPa | 0 mm | - | 624 W/m² | - |
| 1777224666 | 26.67° C | 72% | 1009.5 hPa | 0 mm | - | 531 W/m² | - |
| 1777224360 | 26.67° C | 73% | 1009.5 hPa | 0 mm | - | 458 W/m² | - |
| 1777224057 | 26.67° C | 73% | 1009.7 hPa | 0 mm | - | 436 W/m² | - |
| 1777223754 | 26.67° C | 74% | 1009.5 hPa | 0 mm | - | 549 W/m² | - |
| 1777223449 | 26.11° C | 74% | 1009.5 hPa | 0 mm | - | 381 W/m² | - |
| 1777223148 | 26.11° C | 73% | 1009.7 hPa | 0 mm | - | 384 W/m² | - |
| 1777222844 | 26.67° C | 75% | 1009.7 hPa | 0 mm | - | 357 W/m² | - |
| 1777222543 | 26.67° C | 73% | 1009.6 hPa | 0 mm | - | 440 W/m² | - |
* Rain latest hour (hover to see other rain measurements)
** Current wind speed in m/s (hover to see current wind gust speed)